Location: Augsburg
(48.3836°N, 10.8929°E)
Time: 16:23:41
(UTC+02:00)

ISS - Pass Details

Date: 26 May 2021
Orbit: 417 x 422 km, 51.6° (Epoch: 13 June)

Event Time Altitude Azimuth Distance (km) Brightness Sun altitude
Rises 23:01:05 0° 292° (WNW) 2,368 1.0 -14.3°
Reaches altitude 10° 23:03:12 10° 289° (WNW) 1,503 -0.2 -14.5°
Maximum altitude 23:06:33 64° 207° (SSW) 468 -3.7 -14.8°
Enters shadow 23:07:52 33° 137° (SE) 733 -3.1 -14.9°
